This is the latest recevied weather packets stored in our database for station/object DO3HUM-5. If no packets are shown the sender has not sent any weather packets the latest 10 day(s).
| Time | Temp. | Humidity | Pressure | Rain* | Wind** | Luminosity | Snow |
|---|---|---|---|---|---|---|---|
| 1777557046 | 18.33° C | 38% | 1038 hPa | 0 mm | - | - | - |
| 1777556442 | 16.67° C | 39% | 1038 hPa | 0 mm | - | - | - |
| 1777555838 | 17.22° C | 38% | 1038.2 hPa | 0 mm | - | - | - |
| 1777555237 | 18.33° C | 37% | 1038.5 hPa | 0 mm | - | - | - |
| 1777554633 | 17.78° C | 37% | 1038.4 hPa | 0 mm | - | - | - |
| 1777554030 | 17.78° C | 38% | 1038.6 hPa | 0 mm | - | - | - |
| 1777553429 | 17.22° C | 37% | 1038.5 hPa | 0 mm | - | - | - |
| 1777552826 | 17.78° C | 37% | 1038.7 hPa | 0 mm | - | - | - |
| 1777552221 | 17.22° C | 37% | 1038.7 hPa | 0 mm | - | - | - |
| 1777551620 | 17.22° C | 37% | 1039 hPa | 0 mm | - | - | - |
| 1777551018 | 16.67° C | 38% | 1039.2 hPa | 0 mm | - | - | - |
| 1777550473 | 16.67° C | 38% | 1039.2 hPa | 0 mm | - | - | - |
| 1777549872 | 16.11° C | 38% | 1039.2 hPa | 0 mm | - | - | - |
| 1777549269 | 15.56° C | 38% | 1039.3 hPa | 0 mm | - | - | - |
| 1777548666 | 15.56° C | 39% | 1039.3 hPa | 0 mm | - | - | - |
| 1777548062 | 16.67° C | 38% | 1039.4 hPa | 0 mm | - | - | - |
| 1777547458 | 16.11° C | 37% | 1039.7 hPa | 0 mm | - | - | - |
| 1777546856 | 15.56° C | 38% | 1039.6 hPa | 0 mm | - | - | - |
| 1777546253 | 15.56° C | 38% | 1039.7 hPa | 0 mm | - | - | - |
| 1777545650 | 15.56° C | 37% | 1039.8 hPa | 0 mm | - | - | - |
| 1777545049 | 15° C | 38% | 1039.9 hPa | 0 mm | - | - | - |
| 1777544446 | 15.56° C | 38% | 1039.9 hPa | 0 mm | - | - | - |
| 1777543842 | 15.56° C | 37% | 1039.9 hPa | 0 mm | - | - | - |
| 1777543239 | 15° C | 39% | 1039.8 hPa | 0 mm | - | - | - |
| 1777542636 | 15.56° C | 37% | 1039.9 hPa | 0 mm | - | - | - |
* Rain latest hour (hover to see other rain measurements)
** Current wind speed in m/s (hover to see current wind gust speed)